| time (UTC) | temp F | wind direction | speed MPH | gust MPH | rain 1hr in | rain 24hr in | rain mn in | humidity % | barometer mb |
| 20260902142526 | 85 | 161 | 4.0 | 9.0 | 0.00 | 0.00 | 0.00 | 69 | 1019.5 |
| 20260902142026 | 85 | 144 | 3.0 | 9.0 | 0.00 | 0.00 | 0.00 | 69 | 1019.6 |
| 20260902141525 | 85 | 161 | 3.0 | 8.0 | 0.00 | 0.00 | 0.00 | 70 | 1019.7 |
| 20260902141030 | 84 | 135 | 3.0 | 10.0 | 0.00 | 0.00 | 0.00 | 71 | 1019.7 |
| 20260902140525 | 84 | 157 | 5.0 | 10.0 | 0.00 | 0.00 | 0.00 | 72 | 1019.8 |
| 20260902140025 | 83 | 179 | 3.0 | 7.0 | 0.00 | 0.00 | 0.00 | 73 | 1020.0 |
| 20260902135524 | 83 | 123 | 2.0 | 9.0 | 0.00 | 0.00 | 0.00 | 73 | 1020.1 |
| 20260902135023 | 83 | 136 | 5.0 | 9.0 | 0.00 | 0.00 | 0.00 | 72 | 1020.1 |
| 20260902134525 | 84 | 122 | 6.0 | 9.0 | 0.00 | 0.00 | 0.00 | 71 | 1020.1 |
| 20260902134022 | 84 | 140 | 2.0 | 9.0 | 0.00 | 0.00 | 0.00 | 71 | 1020.2 |
| 20260902133524 | 84 | 132 | 4.0 | 9.0 | 0.00 | 0.00 | 0.00 | 71 | 1020.1 |
| 20260902133024 | 84 | 138 | 2.0 | 9.0 | 0.00 | 0.00 | 0.00 | 71 | 1020.2 |
| 20260902132521 | 84 | 128 | 4.0 | 9.0 | 0.00 | 0.00 | 0.00 | 71 | 1020.2 |
| 20260902132021 | 84 | 133 | 3.0 | 10.0 | 0.00 | 0.00 | 0.00 | 72 | 1020.1 |
| 20260902131520 | 84 | 100 | 3.0 | 8.0 | 0.00 | 0.00 | 0.00 | 73 | 1020.2 |
| 20260902131022 | 84 | 123 | 2.0 | 9.0 | 0.00 | 0.00 | 0.00 | 73 | 1020.2 |
| 20260902130520 | 83 | 89 | 3.0 | 10.0 | 0.00 | 0.00 | 0.00 | 74 | 1020.3 |
| 20260902130019 | 83 | 112 | 3.0 | 10.0 | 0.00 | 0.00 | 0.00 | 74 | 1020.4 |
| 20260902125519 | 83 | 111 | 5.0 | 9.0 | 0.00 | 0.00 | 0.00 | 74 | 1020.5 |
| 20260902125019 | 83 | 109 | 5.0 | 9.0 | 0.00 | 0.00 | 0.00 | 74 | 1020.5 |
| 20260902124521 | 83 | 93 | 2.0 | 11.0 | 0.00 | 0.00 | 0.00 | 74 | 1020.6 |
| 20260902124018 | 82 | 117 | 5.0 | 11.0 | 0.00 | 0.00 | 0.00 | 75 | 1020.6 |
| 20260902123517 | 82 | 111 | 6.0 | 11.0 | 0.00 | 0.00 | 0.00 | 76 | 1020.4 |
| 20260902123017 | 81 | 138 | 5.0 | 13.0 | 0.00 | 0.00 | 0.00 | 76 | 1020.5 |
| 20260902122517 | 81 | 128 | 4.0 | 13.0 | 0.00 | 0.00 | 0.00 | 76 | 1020.5 |
| 20260902122016 | 81 | 111 | 6.0 | 12.0 | 0.00 | 0.00 | 0.00 | 76 | 1020.5 |
| 20260902121516 | 81 | 134 | 5.0 | 9.0 | 0.00 | 0.00 | 0.00 | 76 | 1020.4 |
| 20260902121019 | 81 | 169 | 3.0 | 8.0 | 0.00 | 0.00 | 0.00 | 77 | 1020.5 |
| 20260902120516 | 81 | 180 | 4.0 | 9.0 | 0.00 | 0.00 | 0.00 | 78 | 1020.6 |
| 20260902120016 | 80 | 141 | 3.0 | 9.0 | 0.00 | 0.00 | 0.00 | 78 | 1020.6 |
| 20260902115515 | 80 | 155 | 3.0 | 11.0 | 0.00 | 0.00 | 0.00 | 79 | 1020.7 |
| 20260902115015 | 80 | 108 | 6.0 | 11.0 | 0.00 | 0.00 | 0.00 | 78 | 1020.8 |
| 20260902114515 | 80 | 132 | 5.0 | 11.0 | 0.00 | 0.00 | 0.00 | 78 | 1020.9 |
| 20260902114114 | 80 | 159 | 4.0 | 11.0 | 0.00 | 0.00 | 0.00 | 78 | 1020.9 |
| 20260902113513 | 80 | 119 | 4.0 | 12.0 | 0.00 | 0.00 | 0.00 | 78 | 1020.9 |
| 20260902113013 | 80 | 143 | 5.0 | 12.0 | 0.00 | 0.00 | 0.00 | 78 | 1020.8 |
| 20260902112515 | 81 | 128 | 4.0 | 13.0 | 0.00 | 0.00 | 0.00 | 78 | 1020.8 |
| 20260902112013 | 81 | 121 | 9.0 | 13.0 | 0.00 | 0.00 | 0.00 | 77 | 1020.9 |
| 20260902111515 | 81 | 146 | 6.0 | 11.0 | 0.00 | 0.00 | 0.00 | 75 | 1020.9 |
| 20260902111011 | 82 | 139 | 6.0 | 11.0 | 0.00 | 0.00 | 0.00 | 75 | 1020.9 |
| 20260902110611 | 82 | 165 | 7.0 | 13.0 | 0.00 | 0.00 | 0.00 | 75 | 1020.8 |
| 20260902110010 | 82 | 121 | 7.0 | 13.0 | 0.00 | 0.00 | 0.00 | 74 | 1020.9 |
| 20260902105509 | 82 | 124 | 8.0 | 11.0 | 0.00 | 0.00 | 0.00 | 74 | 1020.8 |
| 20260902105008 | 82 | 106 | 8.0 | 11.0 | 0.00 | 0.00 | 0.00 | 73 | 1020.8 |
| 20260902104507 | 82 | 129 | 6.0 | 11.0 | 0.00 | 0.00 | 0.00 | 73 | 1020.8 |
| 20260902104009 | 83 | 113 | 3.0 | 10.0 | 0.00 | 0.00 | 0.00 | 74 | 1020.7 |
| 20260902103505 | 82 | 153 | 5.0 | 10.0 | 0.00 | 0.00 | 0.00 | 75 | 1020.7 |
| 20260902103004 | 82 | 154 | 5.0 | 10.0 | 0.00 | 0.00 | 0.00 | 75 | 1020.7 |
| 20260902102504 | 82 | 136 | 5.0 | 12.0 | 0.00 | 0.00 | 0.00 | 75 | 1020.7 |
| 20260902102002 | 82 | 107 | 4.0 | 10.0 | 0.00 | 0.00 | 0.00 | 75 | 1020.6 |
| 20260902101503 | 82 | 102 | 6.0 | 11.0 | 0.00 | 0.00 | 0.00 | 75 | 1020.5 |
| 20260902101100 | 82 | 109 | 6.0 | 11.0 | 0.00 | 0.00 | 0.00 | 74 | 1020.5 |
| 20260902100559 | 81 | 121 | 6.0 | 10.0 | 0.00 | 0.00 | 0.00 | 74 | 1020.4 |
| 20260902100110 | 81 | 121 | 6.0 | 10.0 | 0.00 | 0.00 | 0.00 | 75 | 1020.4 |
| 20260902095556 | 81 | 107 | 6.0 | 11.0 | 0.00 | 0.00 | 0.00 | 75 | 1020.3 |
| 20260902095055 | 81 | 130 | 4.0 | 11.0 | 0.00 | 0.00 | 0.00 | 75 | 1020.1 |
| 20260902094611 | 81 | 120 | 6.0 | 9.0 | 0.00 | 0.00 | 0.00 | 74 | 1020.1 |
| 20260902094052 | 81 | 117 | 7.0 | 10.0 | 0.00 | 0.00 | 0.00 | 74 | 1020.0 |
| 20260902093550 | 82 | 125 | 5.0 | 10.0 | 0.00 | 0.00 | 0.00 | 74 | 1019.9 |
| 20260902093050 | 82 | 126 | 5.0 | 9.0 | 0.00 | 0.00 | 0.00 | 73 | 1019.8 |
| 20260902092547 | 81 | 120 | 4.0 | 8.0 | 0.00 | 0.00 | 0.00 | 74 | 1019.6 |
| 20260902092049 | 81 | 133 | 4.0 | 8.0 | 0.00 | 0.00 | 0.00 | 74 | 1019.5 |
| 20260902091552 | 81 | 120 | 4.0 | 9.0 | 0.00 | 0.00 | 0.00 | 75 | 1019.4 |
| 20260902091043 | 81 | 128 | 4.0 | 9.0 | 0.00 | 0.00 | 0.00 | 74 | 1019.3 |
| 20260902090542 | 82 | 157 | 5.0 | 9.0 | 0.00 | 0.00 | 0.00 | 74 | 1019.3 |
| 20260902090040 | 82 | 134 | 5.0 | 9.0 | 0.00 | 0.00 | 0.00 | 73 | 1019.2 |
| 20260902085538 | 82 | 128 | 5.0 | 9.0 | 0.00 | 0.00 | 0.00 | 73 | 1019.0 |
| 20260902085037 | 83 | 122 | 5.0 | 8.0 | 0.00 | 0.00 | 0.00 | 73 | 1018.9 |
| 20260902084535 | 83 | 119 | 5.0 | 8.0 | 0.00 | 0.00 | 0.00 | 73 | 1018.8 |
| 20260902084034 | 83 | 121 | 5.0 | 8.0 | 0.00 | 0.00 | 0.00 | 72 | 1018.7 |
| 20260902083532 | 84 | 117 | 3.0 | 7.0 | 0.00 | 0.00 | 0.00 | 71 | 1018.7 |
| 20260902083032 | 84 | 125 | 4.0 | 7.0 | 0.00 | 0.00 | 0.00 | 71 | 1018.6 |
| 20260902082531 | 83 | 106 | 2.0 | 4.0 | 0.00 | 0.00 | 0.00 | 71 | 1018.6 |
| 20260902082029 | 83 | 99 | 1.0 | 4.0 | 0.00 | 0.00 | 0.00 | 72 | 1018.5 |
| 20260902081527 | 83 | 122 | 1.0 | 4.0 | 0.00 | 0.00 | 0.00 | 72 | 1018.6 |
| 20260902081025 | 83 | 100 | 1.0 | 4.0 | 0.00 | 0.00 | 0.00 | 72 | 1018.6 |
| 20260902080524 | 83 | 97 | 2.0 | 4.0 | 0.00 | 0.00 | 0.00 | 71 | 1018.6 |
| 20260902075526 | 82 | 83 | 1.0 | 3.0 | 0.00 | 0.00 | 0.00 | 71 | 1018.5 |
| 20260902075020 | 81 | 59 | 1.0 | 3.0 | 0.00 | 0.00 | 0.00 | 71 | 1018.6 |
| 20260902074518 | 81 | 22 | 0.0 | 2.0 | 0.00 | 0.00 | 0.00 | 71 | 1018.6 |
| 20260902074017 | 80 | 22 | 0.0 | 2.0 | 0.00 | 0.00 | 0.00 | 72 | 1018.6 |
| 20260902073515 | 80 | 20 | 0.0 | 3.0 | 0.00 | 0.00 | 0.00 | 73 | 1018.5 |
| 20260902073014 | 79 | 19 | 0.0 | 4.0 | 0.00 | 0.00 | 0.00 | 72 | 1018.4 |
| 20260902072512 | 78 | 28 | 2.0 | 4.0 | 0.00 | 0.00 | 0.00 | 74 | 1018.3 |
| 20260902072016 | 78 | 16 | 1.0 | 2.0 | 0.00 | 0.00 | 0.00 | 75 | 1018.4 |
| 20260902071510 | 77 | 16 | 0.0 | 1.0 | 0.00 | 0.00 | 0.00 | 77 | 1018.5 |
| 20260902071008 | 77 | 16 | 0.0 | 2.0 | 0.00 | 0.00 | 0.00 | 78 | 1018.4 |
| 20260902070506 | 76 | 16 | 0.0 | 3.0 | 0.00 | 0.00 | 0.00 | 78 | 1018.3 |
| 20260902070007 | 76 | 15 | 1.0 | 4.0 | 0.00 | 0.00 | 0.00 | 77 | 1018.3 |
| 20260902065507 | 76 | 15 | 2.0 | 4.0 | 0.00 | 0.00 | 0.00 | 77 | 1018.2 |
| 20260902065003 | 75 | 5 | 2.0 | 5.0 | 0.00 | 0.00 | 0.00 | 77 | 1018.1 |
| 20260902064502 | 75 | 5 | 2.0 | 5.0 | 0.00 | 0.00 | 0.00 | 77 | 1018.2 |
| 20260902064100 | 75 | 5 | 3.0 | 5.0 | 0.00 | 0.00 | 0.00 | 77 | 1018.1 |
| 20260902063559 | 75 | 330 | 2.0 | 6.0 | 0.00 | 0.00 | 0.00 | 78 | 1018.1 |
| 20260902063103 | 75 | 335 | 2.0 | 8.0 | 0.00 | 0.00 | 0.00 | 79 | 1017.9 |
| 20260902062601 | 75 | 346 | 3.0 | 8.0 | 0.00 | 0.00 | 0.00 | 79 | 1017.8 |
| 20260902062056 | 75 | 342 | 5.0 | 8.0 | 0.00 | 0.00 | 0.00 | 79 | 1017.8 |
| 20260902061559 | 75 | 332 | 3.0 | 8.0 | 0.00 | 0.00 | 0.00 | 79 | 1017.9 |
| 20260902061058 | 75 | 355 | 4.0 | 6.0 | 0.00 | 0.00 | 0.00 | 79 | 1018.0 |
| 20260902060554 | 75 | 355 | 3.0 | 8.0 | 0.00 | 0.00 | 0.00 | 80 | 1018.0 |
| 20260902060055 | 74 | 360 | 4.0 | 8.0 | 0.00 | 0.00 | 0.00 | 80 | 1018.2 |
| 20260902055552 | 74 | 355 | 4.0 | 8.0 | 0.00 | 0.00 | 0.00 | 81 | 1018.1 |
| 20260902055051 | 74 | 355 | 3.0 | 8.0 | 0.00 | 0.00 | 0.00 | 81 | 1018.2 |
| 20260902054551 | 74 | 349 | 4.0 | 8.0 | 0.00 | 0.00 | 0.00 | 81 | 1018.2 |
| 20260902054050 | 74 | 5 | 4.0 | 8.0 | 0.00 | 0.00 | 0.00 | 82 | 1018.3 |
| 20260902053550 | 73 | 346 | 4.0 | 8.0 | 0.00 | 0.00 | 0.00 | 82 | 1018.3 |
| 20260902053055 | 73 | 355 | 4.0 | 9.0 | 0.00 | 0.00 | 0.00 | 83 | 1018.5 |
| 20260902052549 | 73 | 320 | 3.0 | 6.0 | 0.00 | 0.00 | 0.00 | 83 | 1018.5 |
| 20260902052049 | 73 | 333 | 3.0 | 8.0 | 0.00 | 0.00 | 0.00 | 84 | 1018.5 |
| 20260902051551 | 73 | 333 | 3.0 | 6.0 | 0.00 | 0.00 | 0.00 | 84 | 1018.6 |
| 20260902051049 | 73 | 5 | 2.0 | 5.0 | 0.00 | 0.00 | 0.00 | 84 | 1018.7 |
| 20260902050549 | 74 | 348 | 2.0 | 4.0 | 0.00 | 0.00 | 0.00 | 85 | 1018.6 |
| 20260902050048 | 74 | 14 | 0.0 | 0.0 | 0.00 | 0.00 | 0.00 | 86 | 1018.7 |
| 20260902045548 | 74 | 14 | 0.0 | 0.0 | 0.00 | 0.00 | 0.00 | 86 | 1018.6 |
| 20260902045048 | 74 | 14 | 0.0 | 1.0 | 0.00 | 0.00 | 0.00 | 85 | 1018.4 |
| 20260902044548 | 74 | 14 | 0.0 | 1.0 | 0.00 | 0.00 | 0.00 | 85 | 1018.4 |
| 20260902044047 | 74 | 14 | 0.0 | 1.0 | 0.00 | 0.00 | 0.00 | 85 | 1018.3 |
| 20260902043547 | 74 | 14 | 0.0 | 2.0 | 0.00 | 0.00 | 0.00 | 84 | 1018.3 |
| 20260902043047 | 74 | 13 | 0.0 | 2.0 | 0.00 | 0.00 | 0.00 | 83 | 1018.1 |
| 20260902042546 | 74 | 11 | 0.0 | 1.0 | 0.00 | 0.00 | 0.00 | 81 | 1018.0 |
| 20260902042046 | 74 | 11 | 0.0 | 3.0 | 0.00 | 0.00 | 0.00 | 81 | 1017.8 |
| 20260902041546 | 74 | 11 | 1.0 | 3.0 | 0.00 | 0.00 | 0.00 | 81 | 1017.7 |
| 20260902041045 | 74 | 17 | 0.0 | 3.0 | 0.00 | 0.00 | 0.00 | 81 | 1017.7 |
| 20260902040545 | 74 | 16 | 2.0 | 4.0 | 0.00 | 0.00 | 0.00 | 82 | 1017.8 |
| 20260902040045 | 74 | 17 | 2.0 | 4.0 | 0.00 | 0.00 | 0.00 | 82 | 1017.7 |
| 20260902035544 | 74 | 17 | 2.0 | 5.0 | 0.00 | 0.00 | 0.00 | 82 | 1017.7 |
| 20260902035044 | 74 | 355 | 3.0 | 5.0 | 0.00 | 0.00 | 0.00 | 83 | 1017.6 |
| 20260902034555 | 74 | 360 | 3.0 | 6.0 | 0.00 | 0.00 | 0.00 | 84 | 1017.7 |
| 20260902034043 | 74 | 5 | 3.0 | 8.0 | 0.00 | 0.00 | 0.00 | 85 | 1017.7 |
| 20260902033546 | 73 | 360 | 4.0 | 8.0 | 0.00 | 0.00 | 0.00 | 86 | 1017.8 |
| 20260902033054 | 73 | 341 | 5.0 | 8.0 | 0.00 | 0.00 | 0.00 | 87 | 1017.9 |
| 20260902032541 | 73 | 355 | 3.0 | 6.0 | 0.00 | 0.00 | 0.00 | 88 | 1017.9 |
| 20260902032040 | 73 | 319 | 1.0 | 3.0 | 0.00 | 0.00 | 0.00 | 89 | 1018.0 |
| 20260902031539 | 74 | 332 | 1.0 | 3.0 | 0.00 | 0.00 | 0.00 | 89 | 1018.1 |
| 20260902031039 | 74 | 344 | 0.0 | 1.0 | 0.00 | 0.00 | 0.00 | 89 | 1018.2 |
| 20260902030542 | 74 | 344 | 0.0 | 1.0 | 0.00 | 0.00 | 0.00 | 89 | 1018.3 |
| 20260902030038 | 74 | 344 | 0.0 | 1.0 | 0.00 | 0.00 | 0.00 | 90 | 1018.3 |
| 20260902025538 | 74 | 343 | 0.0 | 3.0 | 0.00 | 0.00 | 0.00 | 90 | 1018.2 |
| 20260902025038 | 74 | 344 | 0.0 | 3.0 | 0.00 | 0.00 | 0.00 | 90 | 1018.3 |
| 20260902024543 | 74 | 345 | 1.0 | 3.0 | 0.00 | 0.00 | 0.00 | 90 | 1018.2 |
| 20260902024037 | 74 | 25 | 0.0 | 3.0 | 0.00 | 0.00 | 0.00 | 89 | 1018.2 |
| 20260902023536 | 74 | 28 | 0.0 | 2.0 | 0.00 | 0.00 | 0.00 | 90 | 1018.2 |
| 20260902023035 | 74 | 28 | 0.0 | 2.0 | 0.00 | 0.00 | 0.00 | 89 | 1018.3 |
| 20260902022535 | 74 | 28 | 0.0 | 3.0 | 0.00 | 0.00 | 0.00 | 89 | 1018.3 |
| 20260902022034 | 74 | 28 | 1.0 | 3.0 | 0.00 | 0.00 | 0.00 | 89 | 1018.5 |
| 20260902021533 | 74 | 28 | 1.0 | 3.0 | 0.00 | 0.00 | 0.00 | 89 | 1018.6 |
| 20260902021035 | 74 | 42 | 0.0 | 3.0 | 0.00 | 0.00 | 0.00 | 89 | 1018.7 |
| 20260902020536 | 74 | 88 | 0.0 | 0.0 | 0.00 | 0.00 | 0.00 | 89 | 1018.9 |
| 20260902020038 | 75 | 88 | 0.0 | 0.0 | 0.00 | 0.00 | 0.00 | 89 | 1018.9 |
| 20260902015531 | 75 | 88 | 0.0 | 0.0 | 0.00 | 0.00 | 0.00 | 88 | 1018.9 |
| 20260902015031 | 75 | 88 | 0.0 | 0.0 | 0.00 | 0.00 | 0.00 | 88 | 1018.9 |
| 20260902014533 | 75 | 88 | 0.0 | 0.0 | 0.00 | 0.00 | 0.00 | 88 | 1018.7 |
| 20260902014029 | 75 | 88 | 0.0 | 0.0 | 0.00 | 0.00 | 0.00 | 87 | 1018.7 |
| 20260902013528 | 75 | 88 | 0.0 | 0.0 | 0.00 | 0.00 | 0.00 | 87 | 1018.8 |
| 20260902013028 | 75 | 88 | 0.0 | 0.0 | 0.00 | 0.00 | 0.00 | 87 | 1018.7 |
| 20260902012527 | 75 | 88 | 0.0 | 0.0 | 0.00 | 0.00 | 0.00 | 87 | 1018.7 |
| 20260902012026 | 75 | 88 | 0.0 | 0.0 | 0.00 | 0.00 | 0.00 | 87 | 1018.7 |
| 20260902011526 | 75 | 88 | 0.0 | 0.0 | 0.00 | 0.00 | 0.00 | 87 | 1018.7 |
| 20260902011025 | 75 | 88 | 0.0 | 0.0 | 0.00 | 0.00 | 0.00 | 87 | 1018.9 |
| 20260902010528 | 75 | 88 | 0.0 | 0.0 | 0.00 | 0.00 | 0.00 | 87 | 1018.9 |
| 20260902010024 | 76 | 88 | 0.0 | 0.0 | 0.00 | 0.00 | 0.00 | 87 | 1019.0 |
| 20260902005524 | 76 | 88 | 0.0 | 0.0 | 0.00 | 0.00 | 0.00 | 86 | 1019.0 |
| 20260902005022 | 76 | 88 | 0.0 | 0.0 | 0.00 | 0.00 | 0.00 | 86 | 1019.0 |
| 20260902004521 | 76 | 88 | 0.0 | 0.0 | 0.00 | 0.00 | 0.00 | 86 | 1019.2 |
| 20260902004020 | 76 | 88 | 0.0 | 0.0 | 0.00 | 0.00 | 0.00 | 86 | 1019.4 |
| 20260902003519 | 76 | 88 | 0.0 | 0.0 | 0.00 | 0.00 | 0.00 | 86 | 1019.4 |
| 20260902003020 | 76 | 88 | 0.0 | 0.0 | 0.00 | 0.00 | 0.00 | 86 | 1019.5 |
| 20260902002519 | 76 | 160 | 0.0 | 0.0 | 0.00 | 0.00 | 0.00 | 86 | 1019.5 |
| 20260902002018 | 76 | 160 | 0.0 | 0.0 | 0.00 | 0.00 | 0.00 | 86 | 1019.5 |
| 20260902001518 | 76 | 160 | 0.0 | 0.0 | 0.00 | 0.00 | 0.00 | 86 | 1019.5 |
| 20260902001017 | 76 | 160 | 0.0 | 0.0 | 0.00 | 0.00 | 0.00 | 86 | 1019.7 |
| 20260902000517 | 76 | 160 | 0.0 | 0.0 | 0.00 | 0.00 | 0.00 | 86 | 1019.6 |
| 20260902000018 | 76 | 160 | 0.0 | 0.0 | 0.00 | 0.00 | 0.00 | 86 | 1019.9 |
| 20260901235517 | 76 | 160 | 0.0 | 0.0 | 0.00 | 0.00 | 0.00 | 85 | 1019.8 |
| 20260901235016 | 76 | 160 | 0.0 | 0.0 | 0.00 | 0.00 | 0.00 | 85 | 1019.9 |
| 20260901234515 | 77 | 160 | 0.0 | 0.0 | 0.00 | 0.00 | 0.00 | 85 | 1019.9 |
| 20260901234016 | 77 | 160 | 0.0 | 0.0 | 0.00 | 0.00 | 0.00 | 85 | 1019.8 |
| 20260901233517 | 77 | 160 | 0.0 | 0.0 | 0.00 | 0.00 | 0.00 | 85 | 1019.9 |
| 20260901233026 | 77 | 160 | 0.0 | 0.0 | 0.00 | 0.00 | 0.00 | 85 | 1020.0 |
| 20260901232514 | 77 | 160 | 0.0 | 0.0 | 0.00 | 0.00 | 0.00 | 85 | 1019.8 |
| 20260901232015 | 77 | 160 | 0.0 | 0.0 | 0.00 | 0.00 | 0.00 | 85 | 1019.8 |
| 20260901231513 | 77 | 160 | 0.0 | 0.0 | 0.00 | 0.00 | 0.00 | 84 | 1019.6 |
| 20260901231012 | 77 | 160 | 0.0 | 0.0 | 0.00 | 0.00 | 0.00 | 84 | 1019.8 |
| 20260901230513 | 77 | 160 | 0.0 | 0.0 | 0.00 | 0.00 | 0.00 | 84 | 1019.6 |
| 20260901230012 | 77 | 160 | 0.0 | 0.0 | 0.00 | 0.00 | 0.00 | 84 | 1019.5 |
| 20260901225511 | 77 | 160 | 0.0 | 0.0 | 0.00 | 0.00 | 0.00 | 84 | 1019.7 |
| 20260901225011 | 77 | 160 | 0.0 | 0.0 | 0.00 | 0.00 | 0.00 | 84 | 1019.6 |
| 20260901224529 | 77 | 160 | 0.0 | 0.0 | 0.00 | 0.00 | 0.00 | 84 | 1019.7 |
| 20260901224010 | 77 | 160 | 0.0 | 0.0 | 0.00 | 0.00 | 0.00 | 84 | 1019.8 |
| 20260901223509 | 78 | 160 | 0.0 | 0.0 | 0.00 | 0.00 | 0.00 | 83 | 1019.7 |
| 20260901223009 | 78 | 160 | 0.0 | 0.0 | 0.00 | 0.00 | 0.00 | 83 | 1019.6 |
| 20260901222510 | 78 | 160 | 0.0 | 0.0 | 0.00 | 0.00 | 0.00 | 83 | 1019.7 |
| 20260901222009 | 78 | 160 | 0.0 | 0.0 | 0.00 | 0.00 | 0.00 | 83 | 1019.6 |
| 20260901221508 | 78 | 160 | 0.0 | 0.0 | 0.00 | 0.00 | 0.00 | 83 | 1019.6 |
| 20260901221007 | 78 | 160 | 0.0 | 0.0 | 0.00 | 0.00 | 0.00 | 83 | 1019.6 |
| 20260901220506 | 78 | 160 | 0.0 | 0.0 | 0.00 | 0.00 | 0.00 | 83 | 1019.7 |
| 20260901220005 | 78 | 159 | 0.0 | 0.0 | 0.00 | 0.00 | 0.00 | 83 | 1019.8 |
| 20260901215505 | 78 | 159 | 0.0 | 0.0 | 0.00 | 0.00 | 0.00 | 83 | 1019.8 |
| 20260901215006 | 78 | 160 | 0.0 | 0.0 | 0.00 | 0.00 | 0.00 | 83 | 1019.8 |
| 20260901214504 | 78 | 159 | 0.0 | 0.0 | 0.00 | 0.00 | 0.00 | 83 | 1019.9 |
| 20260901214004 | 78 | 159 | 0.0 | 0.0 | 0.00 | 0.00 | 0.00 | 83 | 1019.9 |
| 20260901213505 | 78 | 159 | 0.0 | 0.0 | 0.00 | 0.00 | 0.00 | 83 | 1019.9 |
| 20260901213005 | 78 | 159 | 0.0 | 0.0 | 0.00 | 0.00 | 0.00 | 83 | 1019.9 |
| 20260901212503 | 78 | 159 | 0.0 | 0.0 | 0.00 | 0.00 | 0.00 | 83 | 1020.0 |
| 20260901212006 | 78 | 159 | 0.0 | 0.0 | 0.00 | 0.00 | 0.00 | 83 | 1020.0 |
| 20260901211509 | 78 | 159 | 0.0 | 0.0 | 0.00 | 0.00 | 0.00 | 83 | 1020.1 |
| 20260901211002 | 78 | 159 | 0.0 | 0.0 | 0.00 | 0.00 | 0.00 | 83 | 1020.0 |
| 20260901210502 | 78 | 159 | 0.0 | 0.0 | 0.00 | 0.00 | 0.00 | 83 | 1020.0 |
| 20260901210002 | 78 | 159 | 0.0 | 0.0 | 0.00 | 0.00 | 0.00 | 83 | 1020.1 |
| 20260901205503 | 78 | 160 | 0.0 | 0.0 | 0.00 | 0.00 | 0.00 | 83 | 1020.0 |
| 20260901205005 | 78 | 159 | 0.0 | 0.0 | 0.00 | 0.00 | 0.00 | 83 | 1019.8 |
| 20260901204501 | 78 | 159 | 0.0 | 0.0 | 0.00 | 0.00 | 0.00 | 83 | 1019.8 |
| 20260901204100 | 78 | 159 | 0.0 | 0.0 | 0.00 | 0.00 | 0.00 | 83 | 1019.8 |
| 20260901203600 | 78 | 159 | 0.0 | 0.0 | 0.00 | 0.00 | 0.00 | 83 | 1019.6 |
| 20260901203104 | 78 | 159 | 0.0 | 0.0 | 0.00 | 0.00 | 0.00 | 83 | 1019.5 |
| 20260901202558 | 78 | 173 | 0.0 | 0.0 | 0.00 | 0.00 | 0.00 | 83 | 1019.3 |
| 20260901202101 | 78 | 173 | 0.0 | 0.0 | 0.00 | 0.00 | 0.00 | 83 | 1019.3 |
| 20260901201557 | 78 | 173 | 0.0 | 0.0 | 0.00 | 0.00 | 0.00 | 83 | 1019.2 |
| 20260901201058 | 78 | 173 | 0.0 | 0.0 | 0.00 | 0.00 | 0.00 | 83 | 1019.1 |
| 20260901200557 | 78 | 173 | 0.0 | 0.0 | 0.00 | 0.00 | 0.00 | 83 | 1019.1 |
| 20260901200108 | 78 | 173 | 0.0 | 0.0 | 0.00 | 0.00 | 0.00 | 83 | 1019.0 |
| 20260901195558 | 78 | 173 | 0.0 | 0.0 | 0.00 | 0.00 | 0.00 | 83 | 1019.1 |
| 20260901195059 | 78 | 173 | 0.0 | 0.0 | 0.00 | 0.00 | 0.00 | 83 | 1019.0 |
| 20260901194603 | 78 | 173 | 0.0 | 0.0 | 0.00 | 0.00 | 0.00 | 82 | 1018.9 |
| 20260901194056 | 78 | 173 | 0.0 | 0.0 | 0.00 | 0.00 | 0.00 | 82 | 1019.0 |
| 20260901193556 | 78 | 173 | 0.0 | 2.0 | 0.00 | 0.00 | 0.00 | 82 | 1018.8 |
| 20260901193109 | 78 | 173 | 0.0 | 2.0 | 0.00 | 0.00 | 0.00 | 82 | 1018.9 |
| 20260901192555 | 78 | 173 | 0.0 | 3.0 | 0.00 | 0.00 | 0.00 | 82 | 1018.7 |
| 20260901192055 | 78 | 173 | 1.0 | 3.0 | 0.00 | 0.00 | 0.00 | 81 | 1018.7 |
| 20260901191555 | 78 | 173 | 0.0 | 2.0 | 0.00 | 0.00 | 0.00 | 81 | 1018.6 |
| 20260901191055 | 78 | 173 | 0.0 | 2.0 | 0.00 | 0.00 | 0.00 | 81 | 1018.6 |
| 20260901190554 | 78 | 173 | 0.0 | 2.0 | 0.00 | 0.00 | 0.00 | 81 | 1018.5 |
| 20260901190106 | 78 | 173 | 0.0 | 3.0 | 0.00 | 0.00 | 0.00 | 81 | 1018.4 |
| 20260901185555 | 78 | 173 | 0.0 | 3.0 | 0.00 | 0.00 | 0.00 | 81 | 1018.3 |
| 20260901185054 | 78 | 173 | 0.0 | 4.0 | 0.00 | 0.00 | 0.00 | 81 | 1018.2 |
| 20260901184555 | 78 | 173 | 2.0 | 4.0 | 0.00 | 0.00 | 0.00 | 81 | 1018.1 |
| 20260901184053 | 78 | 167 | 1.0 | 4.0 | 0.00 | 0.00 | 0.00 | 81 | 1017.9 |
| 20260901183552 | 78 | 167 | 1.0 | 3.0 | 0.00 | 0.00 | 0.00 | 81 | 1017.9 |
| 20260901183054 | 78 | 167 | 0.0 | 3.0 | 0.00 | 0.00 | 0.00 | 81 | 1017.8 |
| 20260901182553 | 78 | 167 | 0.0 | 5.0 | 0.00 | 0.00 | 0.00 | 81 | 1017.7 |
| 20260901182053 | 78 | 167 | 1.0 | 5.0 | 0.00 | 0.00 | 0.00 | 80 | 1017.6 |
| 20260901181558 | 79 | 165 | 0.0 | 5.0 | 0.00 | 0.00 | 0.00 | 80 | 1017.5 |
| 20260901181052 | 79 | 153 | 1.0 | 3.0 | 0.00 | 0.00 | 0.00 | 80 | 1017.4 |
| 20260901180552 | 79 | 153 | 1.0 | 5.0 | 0.00 | 0.00 | 0.00 | 80 | 1017.4 |
| 20260901180052 | 79 | 153 | 2.0 | 5.0 | 0.00 | 0.00 | 0.00 | 79 | 1017.2 |
| 20260901175552 | 79 | 144 | 1.0 | 5.0 | 0.00 | 0.00 | 0.00 | 79 | 1017.2 |
| 20260901175052 | 79 | 182 | 2.0 | 5.0 | 0.00 | 0.00 | 0.00 | 79 | 1017.2 |
| 20260901174551 | 79 | 145 | 1.0 | 7.0 | 0.00 | 0.00 | 0.00 | 78 | 1017.1 |
| 20260901174052 | 79 | 167 | 3.0 | 7.0 | 0.00 | 0.00 | 0.00 | 78 | 1017.1 |
| 20260901173552 | 80 | 140 | 2.0 | 7.0 | 0.00 | 0.00 | 0.00 | 77 | 1017.2 |
| 20260901173059 | 80 | 125 | 3.0 | 7.0 | 0.00 | 0.00 | 0.00 | 77 | 1017.2 |
| 20260901172551 | 80 | 141 | 1.0 | 7.0 | 0.00 | 0.00 | 0.00 | 77 | 1017.2 |
| 20260901172051 | 80 | 126 | 3.0 | 7.0 | 0.00 | 0.00 | 0.00 | 76 | 1017.1 |
| 20260901171559 | 81 | 110 | 3.0 | 7.0 | 0.00 | 0.00 | 0.00 | 76 | 1017.0 |
| 20260901171049 | 81 | 165 | 2.0 | 9.0 | 0.00 | 0.00 | 0.00 | 76 | 1016.9 |
| 20260901170550 | 81 | 146 | 3.0 | 9.0 | 0.00 | 0.00 | 0.00 | 76 | 1017.0 |
| 20260901170053 | 81 | 137 | 4.0 | 8.0 | 0.00 | 0.00 | 0.00 | 75 | 1017.0 |
| 20260901165549 | 81 | 120 | 3.0 | 10.0 | 0.00 | 0.00 | 0.00 | 75 | 1017.0 |
| 20260901165049 | 82 | 130 | 3.0 | 10.0 | 0.00 | 0.00 | 0.00 | 74 | 1017.0 |
| 20260901164555 | 82 | 121 | 3.0 | 8.0 | 0.00 | 0.00 | 0.00 | 74 | 1017.0 |
| 20260901164049 | 82 | 119 | 3.0 | 8.0 | 0.00 | 0.00 | 0.00 | 74 | 1017.0 |
| 20260901163548 | 82 | 127 | 4.0 | 8.0 | 0.00 | 0.00 | 0.00 | 74 | 1017.0 |
| 20260901163049 | 82 | 144 | 3.0 | 7.0 | 0.00 | 0.00 | 0.00 | 74 | 1017.0 |
| 20260901162548 | 82 | 146 | 2.0 | 7.0 | 0.00 | 0.00 | 0.00 | 74 | 1017.1 |
| 20260901162047 | 82 | 124 | 2.0 | 8.0 | 0.00 | 0.00 | 0.00 | 74 | 1017.2 |
| 20260901161548 | 83 | 145 | 4.0 | 8.0 | 0.00 | 0.00 | 0.00 | 73 | 1017.2 |
| 20260901161049 | 83 | 121 | 3.0 | 9.0 | 0.00 | 0.00 | 0.00 | 73 | 1017.3 |
| 20260901160547 | 84 | 117 | 4.0 | 8.0 | 0.00 | 0.00 | 0.00 | 72 | 1017.3 |
| 20260901160047 | 85 | 137 | 4.0 | 8.0 | 0.00 | 0.00 | 0.00 | 71 | 1017.4 |
| 20260901155547 | 84 | 136 | 2.0 | 7.0 | 0.00 | 0.00 | 0.00 | 71 | 1017.4 |
| 20260901155047 | 84 | 167 | 3.0 | 7.0 | 0.00 | 0.00 | 0.00 | 72 | 1017.3 |
| 20260901154546 | 84 | 153 | 1.0 | 8.0 | 0.00 | 0.00 | 0.00 | 73 | 1017.5 |
| 20260901154046 | 84 | 141 | 3.0 | 8.0 | 0.00 | 0.00 | 0.00 | 72 | 1017.5 |
| 20260901153546 | 84 | 130 | 2.0 | 8.0 | 0.00 | 0.00 | 0.00 | 73 | 1017.6 |
| 20260901153046 | 83 | 140 | 2.0 | 8.0 | 0.00 | 0.00 | 0.00 | 73 | 1017.5 |
| 20260901152545 | 83 | 136 | 4.0 | 8.0 | 0.00 | 0.00 | 0.00 | 74 | 1017.5 |
| 20260901152045 | 83 | 146 | 3.0 | 10.0 | 0.00 | 0.00 | 0.00 | 74 | 1017.4 |
| 20260901151545 | 83 | 105 | 6.0 | 10.0 | 0.00 | 0.00 | 0.00 | 74 | 1017.5 |
| 20260901151045 | 82 | 193 | 4.0 | 9.0 | 0.00 | 0.00 | 0.00 | 75 | 1017.5 |
| 20260901150544 | 82 | 119 | 5.0 | 11.0 | 0.00 | 0.00 | 0.00 | 75 | 1017.6 |
| 20260901150045 | 82 | 158 | 6.0 | 11.0 | 0.00 | 0.00 | 0.00 | 75 | 1017.4 |
| 20260901145545 | 82 | 128 | 4.0 | 12.0 | 0.00 | 0.00 | 0.00 | 75 | 1017.3 |
| 20260901145043 | 83 | 109 | 6.0 | 12.0 | 0.00 | 0.00 | 0.00 | 74 | 1017.2 |
| 20260901144543 | 83 | 115 | 6.0 | 12.0 | 0.00 | 0.00 | 0.00 | 73 | 1017.3 |
| 20260901144046 | 83 | 146 | 4.0 | 9.0 | 0.00 | 0.00 | 0.00 | 73 | 1017.2 |
| 20260901143542 | 83 | 129 | 6.0 | 10.0 | 0.00 | 0.00 | 0.00 | 72 | 1017.2 |
| 20260901143045 | 83 | 146 | 3.0 | 10.0 | 0.00 | 0.00 | 0.00 | 73 | 1017.2 |